QPF
0.00 0.00 0.00 0.00 0.00 0.00 0.00 0.00 0.00 0.00 0.00 0.00 0.00 0.00 0.00 0.00 0.00 0.00 0.00 0.00 0.00 0.00 0.00 0.00 0.00 0.00 0.00 0.00 0.00 0.00 0.00 0.00 0.00 0.00 0.00 0.00 0.00 0.00 0.00 0.00 0.00 0.00
0.00 0.00 0.00 0.00 0.00 0.00 0.00 0.00 0.00 0.00 0.00 0.00 0.00 0.00 0.00 0.00 0.00 0.00 0.00 0.00 0.00 0.00 0.00 0.00 0.00 0.00 0.00 0.00 0.00 0.00 0.00 0.00 0.00 0.00 0.00 0.00 0.00 0.00 0.00 0.00 0.00 0.00
0.00 0.00 0.00 0.00 0.00 0.00 0.00 0.00 0.00 0.00 0.00 0.00 0.00 0.00 0.00 0.00 0.00 0.00 0.00 0.00 0.00 0.00 0.00 0.00 0.00 0.00 0.00 0.00 0.00 0.00 0.00 0.00 0.00 0.00 0.00 0.00 0.00 0.00 0.00 0.00 0.00 0.00
0.00 0.00 0.00 0.00 0.00 0.00 0.00 0.00 0.00 0.00 0.00 0.00 0.00 0.00 0.00 0.00 0.00 0.00 0.00 0.00 0.00 0.00 0.00 0.00 0.00 0.00 0.00 0.00 0.00 0.00 0.00 0.00 0.00 0.00 0.00 0.00 0.00 0.00 0.00 0.00 0.00 0.00
0.00 0.00 0.00 0.00 0.00 0.00 0.00 0.00 0.00 0.00 0.00 0.00 0.00 0.00 0.00 0.00 0.00 0.00 0.00 0.00 0.00 0.00 0.00 0.00 0.00 0.00 0.00 0.00 0.00 0.00 0.00 0.00 0.00 0.00 0.00 0.00 0.00 0.00 0.00 0.00 0.00 0.00
0.00 0.00 0.00 0.00 0.00 0.00 0.00 0.00 0.00 0.00 0.00 0.00 0.00 0.00 0.00 0.00 0.00 0.00 0.00 0.00 0.00 0.00 0.00 0.00 0.00 0.00 0.00 0.00 0.00 0.00 0.00 0.00 0.00 0.00 0.00 0.00 0.00 0.00 0.00 0.00 0.00 0.00
0.00 0.00 0.00 0.00 0.00 0.00 0.00 0.00 0.00 0.00 0.00 0.00 0.00 0.00 0.00 0.00 0.00 0.00 0.00 0.00 0.00 0.00 0.00 0.00 0.00 0.00 0.00 0.00 0.00 0.00 0.00 0.00 0.00 0.00 0.00 0.00 0.00 0.00 0.00 0.00 0.00 0.00
0.00 0.00 0.00 0.00 0.00 0.00 0.00 0.00 0.00 0.00 0.00 0.00 0.00 0.00 0.00 0.00 0.00 0.00 0.00 0.00 0.00 0.00 0.00 0.00 0.00 0.00 0.00 0.00 0.00 0.00 0.00 0.00 0.00 0.00 0.00 0.00 0.00 0.00 0.00 0.00 0.00 0.00
0.00 0.00 0.00 0.00 0.00 0.00 0.00 0.00 0.00 0.00 0.00 0.00 0.00 0.00 0.00 0.00 0.00 0.00 0.00 0.00 0.00 0.00 0.00 0.00 0.00 0.00 0.00 0.00 0.00 0.00 0.00 0.00 0.00 0.00 0.00 0.00 0.00 0.00 0.00 0.00 0.00 0.00
0.00 0.00 0.00 0.00 0.00 0.00 0.00 0.00 0.00 0.00 0.00 0.00 0.00 0.00 0.00 0.00 0.00 0.00 0.00 0.00 0.00 0.00 0.00 0.00 0.00 0.00 0.00 0.00 0.00 0.00 0.00 0.00 0.00 0.00 0.00 0.00 0.00 0.00 0.00 0.00 0.00 0.00
0.00 0.00 0.00 0.00 0.01 0.00 0.00 0.00 0.00 0.00 0.00 0.00 0.00 0.00 0.00 0.00 0.00 0.00 0.00 0.00 0.00 0.00 0.00 0.00 0.00 0.00 0.00 0.00 0.00 0.00 0.00 0.00 0.00 0.00 0.00 0.00 0.00 0.00 0.00 0.00 0.00 0.00
0.00 0.00 0.00 0.00 0.00 0.00 0.00 0.00 0.00 0.00 0.00 0.00 0.00 0.00 0.00 0.00 0.00 0.00 0.00 0.00 0.00 0.00 0.00 0.00 0.00 0.00 0.00 0.00 0.00 0.00 0.00 0.00 0.00 0.00 0.00 0.00 0.00 0.00 0.00 0.00 0.00 0.00
0.00 0.00 0.00 0.00 0.00 0.00 0.00 0.02 0.00 0.00 0.00 0.00 0.00 0.00 0.00 0.00 0.00 0.00 0.01 0.00 0.00 0.00 0.00 0.00 0.00 0.00 0.00 0.00 0.00 0.00 0.00 0.00 0.00 0.00 0.00 0.00 0.00 0.00 0.00 0.00 0.00 0.00
0.00 0.00 0.00 0.01 0.01 0.00 0.00 0.02 0.00 0.00 0.00 0.00 0.00 0.00 0.00 0.00 0.00 0.00 0.00 0.00 0.00 0.00 0.00 0.00 0.00 0.00 0.00 0.00 0.00 0.00 0.00 0.00 0.00 0.00 0.00 0.00 0.00 0.00 0.00 0.00 0.00 0.00
0.00 0.00 0.00 0.01 0.06 0.02 0.01 0.03 0.02 0.01 0.01 0.00 0.00 0.00 0.00 0.00 0.00 0.00 0.00 0.00 0.00 0.00 0.00 0.00 0.00 0.00 0.00 0.00 0.00 0.00 0.00 0.00 0.00 0.00 0.01 0.01 0.01 0.01 0.01 0.00 0.00 0.00
0.01 0.01 0.01 0.01 0.01 0.03 0.03 0.02 0.01 0.03 0.01 0.00 0.00 0.00 0.02 0.00 0.00 0.00 0.00 0.00 0.00 0.00 0.00 0.00 0.00 0.00 0.00 0.00 0.00 0.00 0.00 0.00 0.00 0.00 0.01 0.01 0.00 0.00 0.00 0.00 0.00 0.00
0.00 0.00 0.01 0.01 0.01 0.01 0.01 0.01 0.01 0.00 0.01 0.00 0.00 0.00 0.00 0.00 0.00 0.00 0.00 0.00 0.00 0.00 0.00 0.00 0.00 0.00 0.00 0.00 0.00 0.00 0.00 0.00 0.01 0.01 0.02 0.02 0.01 0.01 0.01 0.01 0.01 0.00
0.00 0.01 0.01 0.00 0.00 0.01 0.01 0.01 0.01 0.00 0.00 0.00 0.00 0.01 0.01 0.01 0.01 0.00 0.00 0.00 0.00 0.00 0.00 0.00 0.00 0.00 0.00 0.00 0.00 0.00 0.00 0.00 0.01 0.03 0.03 0.02 0.02 0.01 0.01 0.00 0.00 0.01
0.00 0.01 0.01 0.01 0.01 0.01 0.01 0.01 0.01 0.01 0.01 0.01 0.01 0.01 0.02 0.02 0.02 0.01 0.01 0.01 0.01 0.01 0.01 0.01 0.00 0.00 0.00 0.00 0.00 0.00 0.00 0.00 0.01 0.02 0.00 0.00 0.01 0.01 0.01 0.01 0.01 0.01
0.01 0.01 0.01 0.01 0.01 0.01 0.01 0.01 0.01 0.01 0.02 0.05 0.01 0.03 0.03 0.02 0.02 0.02 0.01 0.01 0.00 0.01 0.01 0.01 0.00 0.00 0.00 0.00 0.00 0.00 0.00 0.00 0.00 0.00 0.00 0.00 0.00 0.00 0.00 0.00 0.00 0.00
0.00 0.00 0.01 0.01 0.01 0.01 0.01 0.01 0.01 0.01 0.02 0.05 0.03 0.01 0.03 0.02 0.02 0.02 0.01 0.00 0.01 0.04 0.08 0.00 0.00 0.00 0.00 0.00 0.00 0.00 0.00 0.00 0.00 0.00 0.00 0.00 0.00 0.00 0.00 0.00 0.00 0.00
0.00 0.00 0.00 0.00 0.00 0.00 0.01 0.01 0.01 0.01 0.01 0.01 0.01 0.03 0.06 0.15 0.16 0.02 0.03 0.00 0.00 0.00 0.01 0.00 0.00 0.00 0.00 0.00 0.00 0.00 0.00 0.00 0.00 0.00 0.00 0.00 0.00 0.00 0.00 0.00 0.00 0.00
0.00 0.00 0.00 0.00 0.00 0.00 0.00 0.00 0.00 0.01 0.01 0.01 0.03 0.01 0.00 0.01 0.00 0.01 0.00 0.00 0.00 0.00 0.00 0.00 0.00 0.00 0.00 0.00 0.00 0.00 0.00 0.00 0.00 0.00 0.00 0.00 0.00 0.00 0.00 0.00 0.00 0.00
0.00 0.00 0.00 0.00 0.00 0.00 0.00 0.00 0.00 0.00 0.00 0.00 0.01 0.00 0.00 0.00 0.00 0.00 0.00 0.00 0.00 0.00 0.00 0.00 0.00 0.00 0.00 0.00 0.00 0.00 0.00 0.00 0.00 0.00 0.00 0.00 0.00 0.00 0.00 0.00 0.00 0.00
0.00 0.00 0.00 0.00 0.00 0.00 0.00 0.00 0.00 0.00 0.00 0.00 0.00 0.00 0.00 0.00 0.00 0.00 0.00 0.00 0.00 0.00 0.00 0.00 0.00 0.00 0.00 0.00 0.00 0.00 0.00 0.00 0.00 0.00 0.00 0.00 0.00 0.00 0.00 0.00 0.00 0.00
0.00 0.00 0.00 0.00 0.00 0.00 0.00 0.00 0.00 0.00 0.00 0.00 0.00 0.00 0.00 0.00 0.00 0.00 0.00 0.00 0.00 0.00 0.00 0.00 0.00 0.00 0.00 0.00 0.00 0.00 0.00 0.00 0.00 0.00 0.00 0.00 0.00 0.00 0.00 0.00 0.00 0.00
MSLP
1017.51 1017.59 1017.87 1018.03 1018.11 1018.19 1018.39 1018.55 1018.71 1018.95 1019.15 1019.31 1019.63 1019.79 1019.95 1020.03 1019.95 1020.03 1020.03 1020.07 1020.19 1020.35 1020.47 1020.55 1020.59 1020.63 1020.63 1020.67 1020.63 1020.51 1020.67 1020.87 1020.87 1020.75 1020.79 1020.75 1020.83 1020.83 1020.83 1020.79 1020.75 1020.51
1017.59 1017.71 1017.83 1018.03 1018.15 1018.23 1018.31 1018.47 1018.71 1018.91 1019.19 1019.35 1019.51 1019.75 1019.91 1020.07 1020.11 1020.07 1020.19 1020.23 1020.31 1020.47 1020.55 1020.67 1020.71 1020.75 1020.75 1020.75 1020.83 1020.79 1020.91 1021.03 1021.11 1020.95 1021.03 1021.03 1020.95 1021.03 1021.15 1021.11 1020.99 1020.83
1017.63 1017.83 1017.99 1018.23 1018.35 1018.47 1018.47 1018.55 1018.75 1018.91 1019.11 1019.35 1019.59 1019.75 1020.03 1020.11 1020.23 1020.19 1020.23 1020.31 1020.43 1020.59 1020.71 1020.79 1020.87 1020.91 1020.91 1020.95 1020.95 1020.95 1021.11 1021.23 1021.31 1021.23 1021.23 1021.31 1021.23 1021.23 1021.27 1021.19 1021.19 1021.15
1017.63 1017.71 1017.91 1018.19 1018.35 1018.63 1018.75 1018.83 1018.87 1018.95 1019.15 1019.43 1019.63 1019.75 1019.95 1020.11 1020.23 1020.35 1020.39 1020.47 1020.55 1020.71 1020.79 1020.87 1020.95 1020.95 1020.95 1021.07 1021.03 1021.11 1021.23 1021.23 1021.31 1021.35 1021.43 1021.43 1021.39 1021.39 1021.43 1021.31 1021.35 1021.23
1017.63 1017.75 1017.83 1018.11 1018.31 1018.55 1018.79 1018.99 1018.87 1018.95 1019.23 1019.35 1019.51 1019.67 1019.83 1020.07 1020.23 1020.31 1020.39 1020.51 1020.59 1020.75 1020.87 1020.99 1021.07 1021.15 1021.15 1021.15 1021.11 1021.27 1021.31 1021.39 1021.43 1021.35 1021.51 1021.67 1021.63 1021.63 1021.59 1021.51 1021.59 1021.55
1017.59 1017.63 1017.75 1017.95 1018.23 1018.51 1018.75 1018.91 1018.91 1019.07 1019.35 1019.63 1019.71 1019.55 1019.63 1019.83 1019.99 1020.15 1020.31 1020.47 1020.55 1020.75 1020.91 1020.95 1021.11 1021.15 1021.15 1021.27 1021.27 1021.31 1021.31 1021.39 1021.55 1021.47 1021.55 1021.67 1021.71 1021.63 1021.63 1021.71 1021.75 1021.75
1017.67 1017.71 1017.83 1017.87 1018.11 1018.43 1018.59 1018.75 1018.87 1019.11 1019.27 1019.39 1019.55 1019.63 1019.51 1019.67 1019.83 1019.99 1020.11 1020.27 1020.43 1020.59 1020.79 1020.95 1021.11 1021.23 1021.19 1021.23 1021.31 1021.47 1021.47 1021.55 1021.55 1021.51 1021.55 1021.63 1021.79 1021.91 1021.79 1021.75 1021.75 1021.87
1017.67 1017.71 1017.83 1017.87 1018.11 1018.35 1018.51 1018.71 1018.87 1018.95 1019.07 1019.19 1019.43 1019.47 1019.51 1019.55 1019.59 1019.79 1019.91 1020.03 1020.23 1020.39 1020.59 1020.75 1020.91 1021.07 1021.15 1021.11 1021.27 1021.51 1021.67 1021.67 1021.71 1021.63 1021.71 1021.83 1021.79 1021.83 1021.95 1021.95 1022.03 1021.95
1017.59 1017.71 1017.75 1017.91 1018.11 1018.23 1018.39 1018.51 1018.79 1018.87 1018.95 1019.11 1019.27 1019.47 1019.47 1019.47 1019.63 1019.75 1019.75 1019.83 1020.07 1020.27 1020.43 1020.63 1020.75 1020.95 1021.07 1021.11 1021.27 1021.35 1021.47 1021.63 1021.71 1021.75 1021.83 1021.95 1021.95 1021.95 1021.79 1021.95 1022.15 1022.19
1017.47 1017.51 1017.71 1017.83 1018.03 1018.07 1018.23 1018.35 1018.59 1018.75 1018.79 1018.99 1019.07 1019.27 1019.47 1019.55 1019.59 1019.63 1019.71 1019.79 1019.95 1020.11 1020.27 1020.47 1020.59 1020.79 1020.91 1020.95 1021.07 1021.19 1021.27 1021.43 1021.59 1021.71 1021.79 1021.87 1021.91 1021.87 1021.83 1021.99 1022.07 1022.19
1017.43 1017.51 1017.71 1017.91 1018.07 1017.95 1018.11 1018.19 1018.35 1018.51 1018.67 1018.83 1019.03 1019.23 1019.35 1019.51 1019.55 1019.51 1019.63 1019.67 1019.87 1019.87 1019.99 1020.15 1020.27 1020.43 1020.63 1020.83 1020.95 1021.07 1021.15 1021.31 1021.43 1021.51 1021.71 1021.79 1021.87 1021.99 1022.11 1022.03 1022.07 1022.19
1017.51 1017.59 1017.75 1017.95 1018.07 1018.15 1018.15 1018.11 1018.19 1018.35 1018.59 1018.71 1018.87 1019.11 1019.31 1019.39 1019.47 1019.47 1019.47 1019.55 1019.59 1019.55 1019.67 1019.83 1019.95 1020.19 1020.39 1020.55 1020.71 1020.91 1021.07 1021.23 1021.35 1021.51 1021.55 1021.59 1021.71 1021.79 1021.83 1021.95 1022.11 1022.15
1017.43 1017.55 1017.55 1017.75 1017.87 1018.07 1018.15 1018.19 1018.31 1018.39 1018.47 1018.59 1018.67 1018.83 1019.15 1019.31 1019.35 1019.39 1019.39 1019.31 1019.31 1019.39 1019.47 1019.63 1019.83 1020.11 1020.31 1020.55 1020.63 1020.71 1020.87 1021.03 1021.23 1021.31 1021.43 1021.55 1021.59 1021.55 1021.59 1021.71 1021.87 1022.03
1017.27 1017.35 1017.51 1017.71 1017.99 1018.23 1018.35 1018.47 1018.51 1018.51 1018.51 1018.43 1018.51 1018.75 1018.91 1018.95 1019.15 1019.27 1019.35 1019.39 1019.39 1019.47 1019.43 1019.55 1019.83 1020.07 1020.23 1020.43 1020.47 1020.51 1020.67 1020.87 1020.95 1021.19 1021.23 1021.31 1021.43 1021.47 1021.43 1021.51 1021.63 1021.75
1017.35 1017.43 1017.55 1017.59 1018.11 1018.47 1018.55 1018.83 1018.79 1018.71 1018.63 1018.43 1018.59 1018.71 1018.75 1018.75 1018.95 1019.15 1019.35 1019.43 1019.47 1019.55 1019.63 1019.79 1019.87 1019.99 1020.03 1020.23 1020.31 1020.43 1020.51 1020.67 1020.87 1020.99 1021.11 1021.19 1021.31 1021.35 1021.43 1021.47 1021.51 1021.59
1017.31 1017.51 1017.63 1017.75 1018.31 1018.43 1018.59 1018.59 1018.59 1018.51 1018.47 1018.63 1018.71 1018.71 1018.91 1019.03 1019.03 1019.07 1019.15 1019.27 1019.35 1019.47 1019.59 1019.79 1019.91 1020.07 1020.47 1020.67 1020.63 1020.35 1020.27 1020.39 1020.71 1020.91 1020.95 1020.99 1021.15 1021.27 1021.39 1021.39 1021.47 1021.55
1017.47 1017.55 1017.63 1017.79 1017.83 1018.07 1018.51 1018.43 1018.31 1018.39 1018.51 1018.55 1018.67 1018.79 1018.95 1019.03 1018.99 1019.03 1019.07 1019.03 1019.11 1019.31 1019.59 1019.79 1019.91 1020.15 1020.75 1020.91 1020.87 1020.79 1020.51 1020.39 1020.59 1020.67 1020.75 1020.83 1020.95 1021.07 1021.15 1021.31 1021.43 1021.51
1017.59 1017.71 1017.79 1017.75 1017.79 1017.83 1017.95 1017.99 1018.07 1018.23 1018.35 1018.47 1018.67 1018.91 1018.99 1018.99 1019.11 1019.07 1019.11 1019.23 1019.27 1019.35 1019.51 1019.63 1019.83 1020.71 1020.91 1020.95 1020.99 1020.99 1020.95 1020.55 1020.35 1020.47 1020.59 1020.67 1020.75 1020.87 1020.91 1021.03 1021.19 1021.31
1017.63 1017.71 1017.67 1017.79 1017.83 1017.83 1017.87 1017.99 1018.15 1018.23 1018.27 1018.55 1018.83 1018.83 1018.95 1019.11 1019.15 1019.19 1019.27 1019.27 1019.43 1019.47 1019.55 1019.63 1019.99 1021.19 1021.11 1021.23 1021.19 1021.15 1021.11 1020.91 1020.19 1020.19 1020.23 1020.31 1020.47 1020.63 1020.71 1020.87 1020.91 1021.03
1017.55 1017.63 1017.71 1017.79 1017.79 1017.79 1017.91 1018.03 1018.19 1018.31 1018.39 1018.55 1018.75 1018.95 1019.11 1019.07 1019.19 1019.39 1019.39 1019.43 1019.51 1019.55 1019.63 1019.79 1020.27 1021.27 1021.27 1021.27 1021.27 1021.35 1021.27 1021.15 1020.15 1020.11 1020.11 1020.15 1020.31 1020.39 1020.59 1020.67 1020.83 1020.83
1017.43 1017.63 1017.75 1017.87 1017.87 1017.91 1018.03 1018.07 1018.19 1018.27 1018.51 1018.79 1018.83 1018.91 1019.03 1019.07 1019.23 1019.39 1019.47 1019.51 1019.55 1019.67 1019.99 1020.23 1020.87 1021.71 1021.55 1021.51 1021.55 1021.39 1021.31 1020.99 1020.15 1020.19 1020.11 1020.19 1020.31 1020.51 1020.63 1020.79 1020.91 1021.07
1017.59 1017.71 1017.79 1017.87 1017.91 1017.99 1018.07 1018.11 1018.19 1018.31 1018.39 1018.39 1018.55 1018.75 1018.91 1019.27 1019.71 1019.55 1019.71 1019.43 1019.39 1019.55 1019.67 1020.07 1020.71 1021.35 1021.39 1021.39 1021.31 1021.23 1021.23 1020.43 1020.03 1020.15 1020.11 1020.15 1020.35 1020.59 1020.63 1020.75 1020.87 1021.03
1017.75 1017.67 1017.87 1017.87 1017.87 1017.87 1017.91 1017.95 1018.07 1018.15 1018.15 1018.15 1018.51 1018.67 1018.79 1018.95 1019.11 1019.11 1018.95 1019.07 1019.23 1019.27 1019.43 1019.79 1020.15 1021.07 1021.31 1021.35 1021.23 1021.27 1020.91 1019.99 1020.03 1019.95 1020.07 1020.27 1020.51 1020.67 1020.75 1021.15 1021.43 1021.43
1018.03 1017.87 1017.75 1017.79 1017.79 1017.63 1017.71 1017.87 1017.87 1017.87 1017.91 1017.91 1018.23 1018.31 1018.27 1018.31 1018.39 1018.63 1018.79 1018.91 1019.07 1019.15 1019.23 1019.51 1019.99 1020.91 1021.07 1021.07 1021.03 1021.03 1020.71 1019.99 1019.83 1019.79 1020.15 1020.35 1020.63 1020.75 1020.83 1021.35 1022.23 1022.43
1018.23 1018.19 1018.15 1017.95 1017.71 1017.71 1017.79 1017.83 1017.83 1017.79 1017.79 1017.83 1017.87 1017.95 1018.19 1018.27 1018.35 1018.55 1018.75 1018.79 1018.91 1019.19 1019.51 1019.47 1019.75 1020.63 1021.11 1020.99 1021.03 1020.95 1020.43 1019.79 1019.67 1019.75 1020.27 1020.39 1020.55 1020.87 1020.95 1021.19 1021.91 1022.51
1018.35 1018.35 1018.31 1018.27 1018.15 1018.03 1017.95 1017.83 1017.71 1017.75 1017.87 1017.87 1017.83 1017.75 1018.07 1018.15 1018.35 1018.39 1018.67 1018.79 1019.03 1019.23 1019.47 1019.35 1019.63 1020.03 1020.71 1021.03 1020.87 1020.71 1020.47 1019.99 1019.43 1019.71 1020.15 1020.47 1020.43 1020.55 1020.95 1021.27 1021.67 1022.39
Thickness
5617 5616 5615 5613 5611 5611 5610 5609 5607 5606 5604 5603 5601 5600 5599 5599 5600 5600 5600 5598 5597 5596 5594 5593 5593 5593 5593 5593 5594 5595 5595 5593 5594 5594 5595 5596 5595 5596 5596 5597 5598 5598
5613 5613 5612 5610 5609 5609 5609 5607 5605 5603 5602 5601 5599 5598 5597 5596 5596 5597 5597 5596 5595 5593 5592 5591 5590 5590 5591 5591 5591 5592 5591 5590 5591 5591 5591 5591 5592 5592 5591 5592 5593 5594
5610 5610 5609 5608 5607 5606 5606 5605 5603 5601 5599 5597 5596 5595 5595 5594 5594 5593 5594 5593 5592 5591 5590 5589 5588 5588 5588 5589 5588 5589 5588 5587 5587 5588 5588 5587 5588 5588 5588 5589 5589 5589
5609 5608 5608 5607 5605 5603 5602 5600 5600 5599 5597 5595 5594 5593 5592 5592 5591 5591 5591 5590 5590 5588 5587 5587 5586 5586 5586 5586 5586 5586 5585 5585 5585 5585 5584 5584 5584 5584 5585 5585 5585 5586
5607 5607 5606 5605 5603 5601 5598 5598 5598 5597 5595 5593 5592 5592 5592 5590 5590 5590 5589 5588 5587 5586 5586 5584 5584 5584 5583 5584 5584 5583 5582 5582 5582 5582 5581 5580 5580 5581 5581 5582 5581 5582
5605 5604 5604 5603 5601 5598 5597 5596 5596 5595 5593 5591 5590 5590 5591 5590 5589 5589 5588 5587 5586 5584 5583 5583 5582 5581 5581 5581 5581 5580 5580 5580 5579 5580 5579 5578 5578 5578 5578 5579 5579 5579
5601 5601 5601 5600 5598 5597 5595 5595 5594 5594 5592 5590 5589 5589 5589 5590 5589 5588 5587 5586 5585 5583 5582 5581 5580 5579 5579 5579 5578 5577 5577 5576 5577 5577 5577 5577 5576 5575 5576 5576 5576 5575
5598 5598 5598 5597 5596 5594 5594 5593 5592 5592 5592 5590 5589 5588 5588 5588 5588 5588 5587 5586 5585 5583 5582 5580 5579 5577 5577 5577 5576 5575 5574 5574 5574 5574 5574 5574 5573 5573 5573 5572 5571 5572
5596 5596 5595 5594 5593 5592 5592 5592 5591 5591 5590 5589 5588 5586 5585 5585 5586 5586 5586 5585 5584 5582 5581 5579 5578 5576 5575 5576 5575 5574 5573 5572 5571 5572 5571 5571 5571 5571 5571 5570 5569 5569
5594 5594 5593 5592 5592 5592 5591 5591 5590 5589 5588 5587 5586 5584 5583 5583 5583 5583 5584 5583 5582 5581 5580 5578 5577 5576 5575 5574 5573 5572 5572 5571 5570 5570 5569 5568 5568 5568 5568 5568 5567 5567
5593 5592 5591 5590 5590 5590 5591 5590 5590 5588 5587 5585 5583 5582 5581 5580 5580 5581 5581 5581 5581 5580 5579 5578 5577 5576 5574 5573 5572 5571 5571 5570 5569 5568 5568 5567 5566 5565 5565 5565 5565 5564
5590 5589 5589 5588 5588 5588 5589 5588 5588 5587 5585 5583 5582 5580 5578 5577 5577 5578 5579 5580 5580 5580 5579 5578 5576 5575 5574 5573 5572 5570 5569 5568 5567 5566 5566 5565 5564 5563 5563 5563 5562 5561
5588 5588 5588 5587 5586 5586 5585 5585 5584 5583 5582 5582 5581 5579 5577 5575 5575 5575 5576 5578 5578 5578 5578 5577 5575 5573 5572 5570 5570 5569 5568 5567 5566 5564 5563 5563 5561 5561 5562 5561 5560 5559
5586 5586 5586 5585 5583 5581 5580 5579 5579 5579 5580 5580 5579 5578 5576 5575 5574 5573 5573 5574 5574 5575 5574 5574 5572 5571 5569 5569 5568 5568 5567 5565 5564 5562 5562 5561 5559 5559 5559 5559 5558 5558
5583 5583 5583 5582 5579 5576 5575 5574 5574 5575 5576 5576 5576 5575 5574 5573 5572 5571 5571 5570 5570 5571 5570 5569 5568 5568 5566 5565 5566 5566 5565 5563 5561 5559 5559 5559 5557 5557 5556 5556 5555 5555
5579 5579 5579 5578 5576 5573 5572 5572 5572 5572 5573 5572 5572 5571 5570 5569 5569 5569 5569 5568 5568 5568 5566 5565 5564 5563 5561 5559 5560 5562 5562 5562 5558 5557 5557 5556 5555 5555 5554 5553 5552 5551
5573 5574 5573 5573 5574 5572 5570 5570 5570 5570 5570 5569 5568 5567 5566 5566 5566 5567 5566 5566 5566 5565 5563 5562 5561 5558 5555 5553 5554 5555 5557 5558 5556 5555 5555 5554 5552 5552 5551 5550 5548 5548
5567 5567 5567 5567 5568 5568 5568 5568 5567 5567 5567 5565 5564 5563 5562 5561 5561 5562 5562 5561 5562 5561 5560 5559 5556 5551 5549 5549 5549 5549 5550 5552 5553 5553 5551 5550 5550 5549 5548 5547 5546 5544
5561 5561 5562 5562 5562 5562 5563 5563 5562 5562 5561 5560 5559 5558 5558 5557 5556 5556 5555 5555 5556 5555 5554 5554 5550 5544 5542 5543 5543 5543 5543 5546 5549 5550 5548 5548 5547 5545 5544 5543 5542 5541
5555 5555 5555 5555 5555 5556 5556 5556 5555 5556 5555 5553 5553 5552 5552 5551 5550 5550 5548 5548 5549 5548 5548 5548 5543 5537 5537 5537 5537 5538 5537 5540 5544 5545 5544 5544 5542 5541 5540 5539 5538 5537
5549 5548 5547 5548 5548 5549 5549 5549 5549 5549 5548 5547 5547 5547 5546 5546 5544 5542 5541 5541 5542 5541 5541 5540 5535 5530 5530 5531 5531 5532 5532 5535 5538 5539 5538 5539 5537 5535 5535 5534 5533 5532
5541 5541 5541 5541 5542 5542 5543 5543 5543 5543 5543 5543 5542 5541 5540 5538 5536 5535 5536 5536 5536 5536 5536 5534 5529 5525 5524 5525 5526 5526 5528 5531 5533 5533 5533 5533 5531 5529 5529 5528 5527 5527
5533 5534 5534 5534 5536 5537 5537 5537 5537 5537 5538 5538 5536 5535 5534 5534 5532 5533 5532 5532 5531 5531 5530 5530 5526 5521 5520 5521 5521 5521 5523 5527 5529 5528 5528 5526 5524 5524 5524 5521 5518 5518
5526 5527 5527 5529 5530 5531 5532 5531 5532 5532 5533 5533 5531 5531 5531 5530 5530 5529 5527 5526 5526 5525 5525 5524 5521 5516 5515 5515 5515 5516 5518 5522 5524 5523 5522 5520 5519 5518 5518 5514 5510 5508
5519 5519 5519 5521 5522 5523 5524 5524 5526 5526 5526 5527 5527 5526 5525 5525 5524 5523 5522 5521 5520 5519 5518 5518 5516 5512 5509 5509 5510 5510 5513 5518 5520 5519 5516 5515 5514 5513 5512 5509 5505 5501
5511 5511 5511 5512 5513 5514 5515 5516 5518 5519 5519 5519 5520 5520 5520 5519 5519 5518 5517 5516 5515 5513 5512 5512 5512 5508 5505 5503 5504 5505 5507 5511 5514 5513 5511 5509 5509 5507 5506 5503 5500 5496